• In Austria
  • List of Countries
  • For 7 days
  • Water Temperature
  • Satellite Maps
  • Weather Map
  • News
  • Weather Widgets
  • user-avatar
    Login

    Hourly Weather Shrewsbury

    Today, 23 January, Tuesday

    Time Temperature Precipitation Wind Pressure Humidity
    00:00 +4°C° 0 mm 3 mps 755 mmHg 95%
    01:00 +4°C° 0 mm 4 mps 755 mmHg 95%
    02:00 +5°C° 0 mm 5 mps 754 mmHg 95%
    03:00 +6°C° 0 mm 5 mps 754 mmHg 95%
    04:00 +5°C° 0.1 mm 6 mps 753 mmHg 95%
    05:00 +7°C° 0.1 mm 6 mps 752 mmHg 95%
    06:00 +8°C° 0 mm 6 mps 752 mmHg 94%
    07:00 +9°C° 0.4 mm 7 mps 752 mmHg 94%
    08:00 +10°C° 0.4 mm 7 mps 751 mmHg 93%
    09:00 +10°C° 0.4 mm 7 mps 751 mmHg 93%
    10:00 +10°C° 0.1 mm 7 mps 751 mmHg 91%
    11:00 +10°C° 0.1 mm 7 mps 751 mmHg 90%
    12:00 +10°C° 0 mm 6 mps 750 mmHg 89%
    13:00 +10°C° 0.1 mm 7 mps 750 mmHg 88%
    14:00 +10°C° 0.1 mm 7 mps 750 mmHg 88%
    15:00 +10°C° 0.1 mm 8 mps 750 mmHg 88%
    16:00 +10°C° 0 mm 7 mps 750 mmHg 87%
    17:00 +9°C° 0 mm 7 mps 751 mmHg 87%
    18:00 +8°C° 0 mm 7 mps 751 mmHg 87%
    19:00 +8°C° 0 mm 6 mps 751 mmHg 89%
    20:00 +8°C° 0 mm 6 mps 751 mmHg 90%
    21:00 +7°C° 0 mm 5 mps 752 mmHg 91%
    22:00 +8°C° 0 mm 6 mps 751 mmHg 90%
    23:00 +8°C° 0 mm 6 mps 750 mmHg 90%

    Tomorrow, 24 January, Wednesday

    Time Temperature Precipitation Wind Pressure Humidity
    00:00 +8°C° 0 mm 7 mps 750 mmHg 89%
    01:00 +9°C° 0 mm 8 mps 749 mmHg 88%
    02:00 +8°C° 0 mm 9 mps 747 mmHg 87%
    03:00 +9°C° 0 mm 10 mps 746 mmHg 86%
    04:00 +9°C° 0.4 mm 11 mps 745 mmHg 85%
    05:00 +9°C° 0.4 mm 12 mps 743 mmHg 85%
    06:00 +10°C° 0.4 mm 13 mps 742 mmHg 85%
    07:00 +9°C° 2.5 mm 12 mps 742 mmHg 85%
    08:00 +7°C° 2.5 mm 10 mps 742 mmHg 84%
    09:00 +6°C° 2.5 mm 9 mps 742 mmHg 84%
    10:00 +6°C° 0.5 mm 9 mps 743 mmHg 81%
    11:00 +6°C° 0.5 mm 8 mps 743 mmHg 77%
    12:00 +6°C° 0.5 mm 8 mps 744 mmHg 74%
    13:00 +6°C° 0 mm 8 mps 744 mmHg 73%
    14:00 +6°C° 0 mm 8 mps 744 mmHg 73%
    15:00 +6°C° 0 mm 8 mps 744 mmHg 72%
    16:00 +5°C° 0.1 mm 7 mps 745 mmHg 74%
    17:00 +5°C° 0.1 mm 7 mps 745 mmHg 76%
    18:00 +4°C° 0.1 mm 7 mps 745 mmHg 79%
    19:00 +4°C° 0 mm 6 mps 746 mmHg 79%
    20:00 +3°C° 0 mm 6 mps 746 mmHg 79%
    21:00 +3°C° 0 mm 6 mps 746 mmHg 79%
    22:00 +3°C° 0 mm 6 mps 746 mmHg 79%
    23:00 +3°C° 0 mm 6 mps 746 mmHg 79%

    Day after tomorrow, 25 January, Thursday

    Time Temperature Precipitation Wind Pressure Humidity
    00:00 +3°C° 0 mm 6 mps 747 mmHg 80%
    01:00 +3°C° 0 mm 5 mps 747 mmHg 80%
    02:00 +2°C° 0 mm 5 mps 747 mmHg 81%
    03:00 +2°C° 0 mm 5 mps 747 mmHg 82%
    04:00 +2°C° 0 mm 5 mps 746 mmHg 83%
    05:00 +2°C° 0 mm 5 mps 746 mmHg 83%
    06:00 +2°C° 0 mm 5 mps 746 mmHg 84%
    07:00 +2°C° 0 mm 5 mps 746 mmHg 83%
    08:00 +2°C° 0 mm 5 mps 746 mmHg 83%
    09:00 +2°C° 0 mm 5 mps 746 mmHg 82%
    10:00 +3°C° 0.1 mm 6 mps 746 mmHg 78%
    11:00 +4°C° 0.1 mm 7 mps 746 mmHg 73%
    12:00 +5°C° 0.1 mm 7 mps 746 mmHg 69%
    13:00 +5°C° 0.1 mm 7 mps 746 mmHg 70%
    14:00 +5°C° 0.1 mm 7 mps 745 mmHg 72%
    15:00 +5°C° 0.1 mm 6 mps 745 mmHg 73%
    16:00 +4°C° 0.2 mm 6 mps 745 mmHg 77%
    17:00 +5°C° 0.2 mm 5 mps 746 mmHg 80%
    18:00 +3°C° 0.2 mm 5 mps 746 mmHg 84%
    19:00 +3°C° 0 mm 5 mps 747 mmHg 85%
    20:00 +3°C° 0 mm 5 mps 747 mmHg 86%
    21:00 +2°C° 0 mm 5 mps 748 mmHg 87%
    22:00 +3°C° 0.1 mm 5 mps 748 mmHg 86%
    23:00 +3°C° 0.1 mm 5 mps 749 mmHg 86%

    26 January, Friday

    Time Temperature Precipitation Wind Pressure Humidity
    00:00 +3°C° 0.1 mm 5 mps 750 mmHg 86%
    01:00 +3°C° 0 mm 5 mps 750 mmHg 86%
    02:00 +3°C° 0 mm 5 mps 751 mmHg 87%
    03:00 +2°C° 0 mm 5 mps 752 mmHg 87%
    04:00 +2°C° 0 mm 5 mps 752 mmHg 88%
    05:00 +3°C° 0 mm 4 mps 753 mmHg 89%
    06:00 +3°C° 0 mm 4 mps 754 mmHg 90%
    07:00 +3°C° 0 mm 4 mps 755 mmHg 90%
    08:00 +3°C° 0 mm 4 mps 756 mmHg 90%
    09:00 +2°C° 0 mm 3 mps 757 mmHg 90%
    10:00 +3°C° 0 mm 4 mps 758 mmHg 86%
    11:00 +4°C° 0 mm 4 mps 758 mmHg 82%
    12:00 +5°C° 0 mm 4 mps 759 mmHg 78%
    13:00 +5°C° 0 mm 4 mps 759 mmHg 78%
    14:00 +5°C° 0 mm 4 mps 760 mmHg 78%
    15:00 +5°C° 0 mm 4 mps 760 mmHg 78%
    16:00 +4°C° 0 mm 3 mps 760 mmHg 82%
    17:00 +4°C° 0 mm 2 mps 761 mmHg 85%
    18:00 +3°C° 0 mm 2 mps 761 mmHg 89%
    19:00 +3°C° 0 mm 2 mps 762 mmHg 89%
    20:00 +2°C° 0 mm 2 mps 762 mmHg 90%
    21:00 +2°C° 0 mm 2 mps 762 mmHg 90%
    22:00 +2°C° 0 mm 2 mps 762 mmHg 90%
    23:00 +2°C° 0 mm 2 mps 762 mmHg 90%

    27 January, Saturday

    Time Temperature Precipitation Wind Pressure Humidity
    00:00 +1°C° 0 mm 2 mps 762 mmHg 90%
    01:00 +2°C° 0 mm 2 mps 762 mmHg 89%
    02:00 +2°C° 0 mm 2 mps 762 mmHg 89%
    03:00 +2°C° 0 mm 2 mps 762 mmHg 88%
    04:00 +2°C° 0 mm 3 mps 762 mmHg 88%
    05:00 +2°C° 0 mm 3 mps 762 mmHg 89%
    06:00 +3°C° 0 mm 4 mps 762 mmHg 90%
    07:00 +3°C° 0 mm 4 mps 762 mmHg 91%
    08:00 +4°C° 0 mm 4 mps 762 mmHg 91%
    09:00 +4°C° 0 mm 4 mps 763 mmHg 92%
    10:00 +5°C° 0.3 mm 4 mps 763 mmHg 92%
    11:00 +6°C° 0.3 mm 4 mps 762 mmHg 93%
    12:00 +6°C° 0.3 mm 5 mps 762 mmHg 93%
    13:00 +7°C° 0.3 mm 5 mps 762 mmHg 93%
    14:00 +7°C° 0.3 mm 5 mps 762 mmHg 93%
    15:00 +8°C° 0.3 mm 5 mps 762 mmHg 93%
    16:00 +8°C° 0.1 mm 5 mps 762 mmHg 94%
    17:00 +8°C° 0.1 mm 5 mps 762 mmHg 94%
    18:00 +10°C° 0.1 mm 4 mps 763 mmHg 95%
    19:00 +10°C° 0 mm 4 mps 763 mmHg 94%
    20:00 +10°C° 0 mm 4 mps 763 mmHg 94%
    21:00 +10°C° 0 mm 4 mps 764 mmHg 94%
    22:00 +10°C° 0 mm 4 mps 764 mmHg 94%
    23:00 +10°C° 0 mm 4 mps 765 mmHg 94%

    28 January, Sunday

    Time Temperature Precipitation Wind Pressure Humidity
    00:00 +10°C° 0 mm 4 mps 765 mmHg 94%
    01:00 +10°C° 0 mm 4 mps 765 mmHg 94%
    02:00 +10°C° 0 mm 4 mps 765 mmHg 94%
    03:00 +10°C° 0 mm 4 mps 765 mmHg 94%
    04:00 +10°C° 0 mm 4 mps 766 mmHg 94%
    05:00 +10°C° 0 mm 4 mps 766 mmHg 93%
    06:00 +10°C° 0 mm 4 mps 766 mmHg 93%
    07:00 +10°C° 0 mm 4 mps 767 mmHg 93%
    08:00 +10°C° 0 mm 4 mps 767 mmHg 94%
    09:00 +10°C° 0 mm 4 mps 767 mmHg 94%
    10:00 +10°C° 0 mm 5 mps 768 mmHg 91%
    11:00 +10°C° 0 mm 5 mps 768 mmHg 89%
    12:00 +11°C° 0 mm 6 mps 768 mmHg 86%
    13:00 +12°C° 0 mm 5 mps 768 mmHg 86%
    14:00 +12°C° 0 mm 5 mps 768 mmHg 86%
    15:00 +12°C° 0 mm 5 mps 768 mmHg 85%
    16:00 +10°C° 0 mm 5 mps 768 mmHg 88%
    17:00 +10°C° 0 mm 4 mps 768 mmHg 90%
    18:00 +9°C° 0 mm 3 mps 768 mmHg 92%
    19:00 +9°C° 0 mm 3 mps 769 mmHg 92%
    20:00 +9°C° 0 mm 3 mps 769 mmHg 92%
    21:00 +9°C° 0 mm 3 mps 769 mmHg 92%
    22:00 +9°C° 0 mm 3 mps 769 mmHg 92%
    23:00 +8°C° 0 mm 4 mps 769 mmHg 92%
    Show more